Theta_e
353 352 353 356 355 355 355 355 355 354 354 354 353 352 352 352 352 352 352 352 351 351 351 350 350 350 349 347 346 346 346 348 351 350 350 350 350 350 349 349 349 348 348 349 349 349 349 350 350 350 348 348 350 351 348 348 347 346 344 345 346 347 346 346 346 346 345 346 346 346 347 347 348 349 348 348 346 346 344 344 343 341 343 343 344
352 354 354 355 355 355 355 354 354 353 353 353 352 352 352 351 351 351 351 351 350 350 349 349 349 348 347 347 347 347 347 348 350 349 349 349 349 348 348 348 348 348 349 349 349 350 349 349 349 350 349 349 349 348 349 348 348 346 346 346 345 345 346 347 346 346 346 346 346 345 346 346 347 348 348 346 346 345 343 342 341 340 341 343 344
354 354 354 354 355 354 354 353 353 352 352 351 352 351 351 351 350 350 350 349 349 349 348 348 348 348 347 348 347 347 347 347 349 348 349 348 348 347 348 349 349 350 350 349 349 349 349 350 349 350 348 349 348 349 348 349 348 347 346 344 344 345 346 347 346 346 345 345 345 346 346 346 346 346 346 345 345 346 343 342 341 340 340 341 341
353 354 354 355 355 354 353 353 353 353 352 351 351 350 350 350 350 350 349 349 348 348 348 348 348 347 347 347 346 346 346 346 347 347 347 346 348 349 349 349 351 351 350 349 350 349 349 350 349 349 349 349 349 349 348 348 348 347 346 345 345 345 346 346 346 345 345 345 344 344 343 343 344 344 345 346 345 345 344 342 342 341 341 340 340
353 353 353 354 355 354 353 353 352 352 352 351 351 350 350 349 348 349 349 348 348 348 348 348 347 347 346 346 346 345 345 345 345 346 347 348 348 349 350 350 350 350 350 350 349 349 349 351 350 349 349 349 348 348 348 348 348 347 346 346 345 346 346 346 345 345 345 345 342 342 340 339 341 341 343 343 342 342 341 340 340 339 341 338 338
354 355 354 353 351 354 353 353 352 352 351 351 350 350 349 349 348 348 349 348 348 348 348 347 347 347 346 346 346 346 345 345 345 346 347 348 347 347 350 350 350 350 350 350 349 349 350 349 349 348 348 348 348 347 347 347 347 347 346 346 345 345 345 344 344 344 343 343 342 341 339 340 339 340 341 341 342 340 339 339 338 341 341 339 337
354 355 354 353 353 353 353 352 352 351 350 349 349 349 349 349 348 348 349 349 348 347 347 347 347 346 347 346 346 346 345 345 345 346 348 348 348 348 349 351 350 350 350 350 349 349 349 349 349 348 347 347 347 347 347 346 347 347 346 346 346 345 343 342 341 341 340 341 340 338 337 337 337 338 340 339 339 337 337 338 338 339 339 339 338
355 354 354 353 353 353 353 352 352 350 350 349 349 350 349 349 349 349 349 348 348 347 347 347 347 347 347 346 346 345 345 345 345 347 348 348 348 348 348 349 349 349 350 350 349 349 349 348 346 346 347 349 349 349 348 347 347 346 346 345 344 343 341 340 340 340 338 338 338 338 337 336 337 337 340 339 339 344 344 343 343 342 342 342 341
352 353 353 353 352 352 353 352 351 351 350 349 349 349 349 349 349 348 348 348 348 347 347 347 347 347 346 346 346 346 346 345 345 346 347 348 349 349 349 348 348 348 348 349 348 348 347 346 346 347 348 349 349 349 348 348 348 346 345 344 343 342 341 340 339 338 338 337 335 333 334 333 332 333 335 338 339 342 343 343 343 342 341 340 340
353 354 353 352 352 353 352 352 352 351 351 349 348 350 349 348 348 349 348 348 347 347 347 347 346 346 346 346 346 345 345 345 345 345 347 348 349 349 348 348 347 348 348 348 347 347 347 344 345 347 349 349 348 347 347 346 346 345 344 343 343 342 341 341 340 338 334 332 334 335 339 340 337 335 337 338 340 341 343 343 343 341 341 340 338
353 353 352 351 352 352 352 352 352 351 349 349 349 349 348 348 348 349 348 348 347 347 347 347 346 346 346 346 346 346 345 345 345 345 346 347 348 348 347 347 347 347 347 347 347 347 344 344 346 347 348 347 347 346 346 346 345 345 343 343 342 341 341 340 338 337 337 336 338 338 339 340 336 337 339 339 339 339 340 340 341 340 340 340 339
352 353 354 353 354 352 352 351 352 351 350 349 349 349 348 348 348 348 348 348 347 348 347 347 347 346 346 347 346 346 346 346 347 347 347 347 347 347 347 347 348 348 347 347 347 346 344 345 346 347 347 346 346 346 346 345 344 343 342 342 341 340 340 338 336 335 336 336 336 337 336 336 337 339 341 340 341 340 339 340 340 341 342 341 340
351 352 353 354 353 352 352 352 352 351 351 350 349 349 349 349 349 348 348 348 348 348 347 347 348 347 347 347 347 347 347 347 347 347 347 347 348 348 348 348 347 347 347 347 347 345 345 345 346 347 347 346 346 346 345 344 343 343 342 341 340 340 339 336 334 335 336 335 336 337 336 337 339 339 339 339 340 341 340 339 339 340 340 340 340
351 352 353 353 352 354 352 352 352 352 350 350 351 351 349 348 348 349 350 349 348 349 348 349 348 348 348 348 348 348 347 347 347 347 347 348 348 348 347 347 347 347 347 347 346 345 345 346 346 347 347 345 346 345 345 344 343 342 342 341 340 338 337 336 336 336 336 335 337 336 338 339 338 339 338 338 339 339 339 339 338 338 338 338 338
351 352 353 353 353 353 354 353 352 352 352 351 351 351 350 349 349 350 350 350 349 349 349 349 349 348 348 348 348 348 347 347 347 347 349 349 348 348 347 347 347 347 347 347 347 347 346 346 346 346 347 345 345 345 344 343 342 341 341 339 338 338 335 335 335 335 335 334 336 335 337 339 341 339 338 339 339 339 338 338 337 336 336 336 336
352 353 353 353 353 353 353 355 353 352 352 352 351 351 350 350 350 351 350 350 349 349 349 349 349 348 348 348 347 347 347 347 348 349 349 349 348 348 347 347 347 347 346 346 345 346 346 347 347 347 347 346 345 344 344 343 341 340 339 339 338 338 337 337 336 335 336 336 337 338 337 340 340 339 338 338 337 336 335 335 336 336 336 336 335
353 353 352 352 353 353 352 352 353 353 353 352 352 352 351 351 351 351 350 350 349 349 349 349 349 349 348 347 347 347 347 348 349 349 349 349 348 348 347 347 347 347 346 346 345 346 347 347 347 348 347 346 345 344 343 342 340 340 339 339 338 338 337 337 336 336 336 335 334 335 338 337 336 338 336 337 336 336 336 336 336 335 334 334 334
352 352 351 351 352 352 353 353 352 353 353 353 352 352 352 351 351 351 350 350 350 349 349 349 349 349 348 347 347 347 348 349 349 349 349 349 348 347 347 347 346 346 346 345 345 347 347 347 347 348 347 345 344 344 342 341 340 339 339 338 338 338 338 336 337 337 336 336 335 337 336 339 339 337 335 335 335 335 334 334 335 335 335 335 334
351 352 351 351 350 351 351 352 353 351 352 352 352 353 352 351 351 351 350 349 350 350 349 350 349 349 348 346 346 346 348 349 349 349 349 348 348 346 346 346 346 346 346 345 345 346 346 347 347 347 346 345 344 343 342 341 340 339 339 339 338 338 337 337 337 335 336 336 336 335 336 338 338 336 336 336 336 336 337 336 335 334 333 334 333
350 351 351 350 350 350 351 351 352 352 353 353 352 352 352 352 351 350 350 350 350 350 350 349 349 348 346 346 347 348 349 349 349 349 348 347 346 346 346 346 345 345 346 345 346 346 346 347 347 347 345 345 344 343 342 341 339 339 339 339 338 337 338 337 336 335 336 335 337 337 338 338 338 336 336 335 335 334 335 335 334 334 333 332 330
349 349 350 349 350 350 350 350 351 352 352 353 352 351 351 351 350 351 350 350 350 350 350 349 348 348 346 347 348 350 351 349 350 350 348 349 346 346 346 346 345 344 345 346 345 345 346 346 346 346 345 344 343 342 341 340 340 339 339 338 337 337 338 337 338 337 336 336 337 336 338 337 336 336 336 335 334 333 333 332 332 331 331 331 333
344 346 348 349 349 349 350 350 350 351 350 351 351 351 351 350 351 350 351 350 350 351 351 349 348 348 347 348 348 349 349 350 350 349 350 348 347 346 346 346 345 344 345 345 345 346 345 345 345 345 344 343 342 342 342 341 340 339 338 336 336 337 338 338 338 336 336 336 337 336 336 336 336 335 334 334 333 333 332 331 331 332 332 332 331
342 346 347 348 349 349 349 349 350 350 350 351 350 351 350 351 350 350 350 349 350 350 349 348 348 349 348 348 348 349 349 349 350 348 349 347 347 346 346 346 345 344 345 346 345 345 345 345 345 344 343 343 343 343 342 341 341 338 337 337 338 338 338 337 337 337 337 337 336 336 335 334 334 334 334 334 333 332 332 332 331 331 331 331 331
342 343 346 347 349 349 350 350 349 349 349 349 349 349 349 349 348 349 349 349 349 349 349 349 349 350 349 349 349 348 349 349 348 349 349 349 348 346 345 345 345 345 344 345 345 345 345 344 345 344 343 343 344 343 342 342 340 338 338 337 336 337 337 337 335 337 337 335 335 335 335 334 334 334 334 334 333 332 332 332 332 331 330 331 331
344 345 347 347 348 349 349 350 350 350 348 348 348 347 348 348 347 347 348 349 349 349 349 349 349 349 351 351 349 348 348 348 347 348 348 348 348 346 346 345 346 345 344 344 344 343 344 343 343 343 344 344 342 343 341 338 338 337 337 337 337 337 336 337 336 337 337 337 336 335 334 334 333 333 333 333 332 332 333 332 332 330 330 330 330
345 343 344 347 348 349 349 349 349 348 348 347 347 347 347 346 347 346 347 346 347 346 347 348 348 348 349 349 350 350 348 347 347 347 347 347 346 344 344 344 345 344 344 342 342 343 342 341 342 342 343 344 343 342 341 338 337 336 336 337 337 337 336 336 337 337 337 336 336 334 334 334 334 334 334 334 333 333 332 332 331 331 330 330 330
341 343 345 346 348 350 350 349 347 348 348 349 348 347 346 347 347 346 345 345 346 345 345 347 347 347 348 349 349 349 346 345 345 345 345 345 345 344 344 344 343 342 343 342 342 344 343 342 343 344 344 342 341 340 338 337 337 335 336 335 337 336 337 336 337 337 336 337 337 335 335 334 336 334 332 333 333 333 332 332 331 330 330 330 330
341 343 345 347 347 347 349 349 347 347 348 349 349 347 348 347 347 347 346 344 344 345 345 347 347 346 347 348 349 348 346 344 344 344 344 345 343 344 344 343 344 342 342 343 341 342 343 342 343 343 342 341 339 338 336 335 336 337 335 336 336 337 337 337 337 337 336 338 337 335 334 336 335 332 332 333 333 333 332 330 330 330 330 331 331
339 341 344 345 347 348 348 348 347 346 348 349 347 348 348 348 347 346 346 347 345 344 346 347 345 346 346 347 346 345 345 345 346 346 344 343 344 344 343 344 343 342 342 341 342 342 342 342 342 342 342 340 338 338 336 335 337 337 336 336 337 337 338 338 338 336 336 336 337 334 334 335 334 335 333 333 333 332 332 333 332 332 332 331 329
338 340 342 344 346 346 347 347 346 346 348 348 348 346 346 346 346 346 347 347 345 346 346 344 346 345 345 346 346 345 345 346 345 345 343 342 343 343 343 343 343 342 340 339 340 341 341 342 341 341 339 340 338 338 337 336 335 336 337 337 336 336 338 338 338 337 337 337 337 336 335 336 336 336 336 333 333 334 333 332 332 332 330 331 331
336 338 341 343 346 345 345 346 347 347 349 346 346 346 346 346 345 345 347 346 346 346 343 345 345 345 346 346 346 345 345 344 344 343 342 342 342 342 342 343 342 341 342 340 340 340 341 341 342 341 340 339 339 338 337 336 336 335 337 337 337 338 338 339 338 338 337 337 337 337 334 333 333 334 336 339 335 333 333 332 332 331 332 332 331
332 334 340 343 342 344 347 346 346 347 345 344 346 345 345 345 345 345 345 346 346 344 343 343 344 345 346 345 346 345 344 344 344 342 342 341 340 341 341 342 342 342 342 341 340 339 339 340 342 343 344 342 340 339 339 337 336 336 336 338 338 338 337 338 338 338 337 337 337 336 336 335 334 335 336 338 336 334 333 332 332 332 332 332 332
333 334 338 341 341 343 343 344 346 347 345 343 344 345 346 345 345 344 346 345 345 343 342 342 345 344 345 345 345 345 345 344 343 343 342 342 342 342 341 342 344 343 343 344 342 341 339 339 340 341 342 341 340 340 338 340 338 337 337 338 339 338 338 338 337 337 336 337 337 338 338 337 337 336 337 334 335 333 333 332 332 332 334 334 335
331 334 339 340 342 343 343 343 344 343 344 344 345 345 345 345 346 346 346 345 344 343 343 343 345 344 345 345 344 343 344 345 343 342 343 341 341 341 340 341 342 344 344 343 341 340 339 339 339 340 340 341 339 339 338 338 337 337 338 337 337 337 337 337 336 337 337 336 337 337 338 338 336 336 335 334 335 334 333 332 334 335 335 334 335
333 334 337 340 342 342 342 342 343 343 344 344 343 344 344 345 345 344 344 345 344 344 345 344 343 343 343 342 344 344 343 343 344 343 342 341 340 340 340 341 342 342 341 342 340 341 340 340 340 338 337 338 337 337 337 337 337 336 335 336 335 336 336 336 336 336 336 337 338 337 338 337 338 339 338 336 337 337 337 335 335 335 334 335 334
334 336 337 339 340 341 342 341 342 342 342 344 343 343 343 343 344 343 344 345 344 343 344 343 343 344 343 342 342 343 343 343 343 343 343 342 341 340 341 342 342 341 340 341 342 339 340 340 341 339 335 335 335 334 335 335 336 335 335 335 336 336 335 336 334 334 335 336 336 338 337 337 337 336 336 337 340 338 337 337 337 337 334 334 334
337 337 337 338 339 341 342 341 341 341 341 343 343 341 341 340 340 342 342 344 343 342 343 343 342 342 343 342 342 342 342 342 343 343 343 342 342 341 342 342 342 341 340 340 340 340 341 339 338 339 340 335 335 333 333 333 334 334 334 334 335 336 335 335 334 334 334 334 336 337 337 336 339 337 341 339 341 339 337 336 336 337 336 337 333
338 338 338 338 338 340 341 341 342 342 342 341 340 339 339 339 339 340 341 342 343 343 342 341 339 338 342 341 342 342 342 342 343 342 343 342 343 342 342 342 342 341 340 339 340 342 342 342 336 337 336 335 333 333 332 333 333 333 333 333 334 334 335 335 334 335 334 334 335 335 335 337 338 340 340 340 340 340 339 337 334 335 336 334 335
338 339 339 339 339 340 341 340 341 341 341 339 338 338 338 338 338 338 339 340 341 343 341 340 339 339 340 341 342 342 342 342 342 342 342 342 342 342 342 342 342 341 340 339 338 338 340 340 337 335 336 335 334 335 333 333 332 332 331 333 334 334 333 335 334 333 334 335 337 336 336 336 338 338 338 340 340 340 340 340 339 339 338 334 335
337 338 339 339 339 340 340 340 340 340 339 337 336 335 336 335 334 335 335 337 340 340 340 339 339 338 339 341 341 341 343 342 341 341 342 342 342 342 342 343 342 341 340 338 337 337 337 337 337 335 333 333 334 334 334 332 331 331 330 332 332 332 333 334 333 333 333 334 337 337 335 337 337 337 338 337 338 336 338 338 339 338 338 337 334
337 338 337 337 337 335 335 333 335 337 335 334 334 333 332 333 334 334 333 337 337 340 338 339 339 338 339 339 339 341 342 341 340 340 340 341 342 343 342 343 341 340 340 340 339 338 338 338 336 336 333 331 331 333 333 333 329 328 330 330 331 333 333 333 332 332 332 333 334 334 335 334 336 333 336 336 335 334 334 336 337 338 337 338 338
330 331 333 335 334 333 333 332 332 331 333 334 333 333 334 335 334 333 334 335 336 336 336 336 338 338 338 338 338 339 341 341 340 338 339 341 341 340 341 341 340 340 340 341 340 338 338 338 336 333 334 332 330 331 331 331 327 326 324 325 330 331 332 332 330 331 332 333 332 332 334 335 335 335 336 335 334 333 333 334 335 336 335 339 339
327 328 328 329 328 328 328 329 329 329 330 331 332 331 332 334 334 334 335 335 338 339 338 339 336 337 336 337 338 339 339 339 340 339 338 340 340 340 339 337 336 337 337 337 337 337 337 337 336 334 331 333 331 332 332 334 329 329 330 326 321 320 323 327 330 330 331 331 332 332 334 334 335 336 336 334 333 333 333 334 335 335 335 336 338
326 327 328 327 327 328 328 330 330 330 330 331 331 332 333 333 334 334 336 336 335 339 339 339 337 336 335 337 337 338 338 338 339 339 339 340 341 340 340 337 334 336 337 338 337 335 335 337 337 337 335 329 328 328 332 333 332 328 321 322 323 323 318 321 324 328 331 330 329 329 331 333 335 335 332 332 332 333 333 334 334 334 335 336 337
326 326 326 327 328 328 329 329 329 330 333 333 334 335 335 333 333 334 336 336 337 337 336 334 335 334 334 334 334 337 337 338 339 340 339 340 341 341 339 338 337 336 336 339 338 335 335 336 337 337 335 331 328 329 330 332 333 335 329 322 320 318 318 321 324 324 329 328 329 330 330 330 330 331 331 332 333 333 333 332 333 334 335 335 336
328 329 328 329 329 329 331 332 330 332 331 332 333 334 334 333 331 330 328 329 329 331 330 331 333 332 332 335 336 336 337 337 338 339 339 340 341 340 340 337 335 336 335 338 338 337 332 332 334 337 336 337 333 329 327 332 333 334 336 335 330 321 321 323 322 317 328 329 329 330 330 330 331 330 331 330 330 331 333 333 333 333 334 334 334
329 332 333 334 332 331 332 332 333 332 333 332 333 332 332 332 332 331 332 330 329 333 336 337 337 335 336 335 335 335 335 336 336 338 339 339 340 340 340 338 335 335 336 338 337 333 332 332 335 336 336 335 335 329 328 327 330 331 332 333 332 330 330 324 319 321 317 324 328 328 328 329 330 330 329 330 331 331 331 332 331 331 332 333 334
326 328 329 329 328 330 331 331 332 333 333 333 333 333 331 332 331 331 332 331 331 332 335 338 339 334 331 334 333 333 334 335 336 336 338 337 337 337 338 339 337 336 335 337 338 336 335 335 336 337 336 335 335 332 330 329 326 327 331 330 330 331 332 333 329 324 321 318 320 327 329 328 329 329 330 330 331 331 330 331 330 329 330 331 333
325 326 328 329 331 331 333 334 333 333 334 333 333 333 332 332 332 332 331 333 334 336 337 334 331 329 329 332 333 333 334 334 335 335 334 333 333 334 334 335 337 338 339 337 338 335 333 333 332 333 333 334 336 336 333 330 330 329 329 327 328 329 330 332 331 328 323 319 319 321 322 326 328 328 329 330 330 331 330 331 330 330 331 332 333
325 327 329 331 331 331 331 331 332 332 332 333 334 333 333 333 332 332 332 333 334 334 333 332 332 330 329 331 332 331 330 331 333 333 332 333 333 333 333 333 336 336 338 339 338 334 334 333 332 332 334 334 336 336 335 334 333 333 331 329 327 326 327 327 327 326 326 326 320 319 322 321 320 324 328 328 329 331 331 331 331 330 331 332 331
321 323 325 328 329 329 330 330 331 332 332 333 333 333 333 333 332 332 333 332 333 332 329 330 331 329 328 331 329 329 330 331 332 332 333 333 333 334 333 333 334 336 336 338 339 337 335 333 333 332 333 333 334 335 334 335 334 333 331 329 328 327 326 325 326 326 325 322 321 321 322 322 322 322 325 328 329 330 330 331 330 330 332 331 330
Wind_Speed
14 15 14 15 15 14 15 16 17 18 18 17 18 20 21 20 20 20 20 20 20 20 19 19 19 19 18 18 17 17 16 17 18 18 17 17 17 17 16 16 16 16 15 15 15 15 16 17 16 16 17 16 16 16 17 18 18 19 18 14 14 15 14 14 15 16 13 13 14 14 14 16 16 17 17 17 16 15 14 13 12 12 11 14 17
17 15 14 16 14 15 16 17 18 18 18 17 18 19 20 20 20 20 20 20 20 20 19 19 19 19 18 17 17 16 15 16 18 18 18 18 18 18 18 17 17 16 16 16 16 17 17 18 17 17 17 17 17 18 18 18 18 18 18 17 14 12 12 16 16 16 16 15 15 16 17 17 17 17 17 16 15 15 14 13 12 10 10 15 17
16 15 13 16 16 17 17 18 19 19 18 17 18 18 17 18 19 19 18 19 19 19 19 19 19 19 18 17 17 16 14 16 18 18 18 18 18 19 18 17 18 17 17 17 17 17 18 18 17 17 18 19 18 19 19 19 19 19 18 17 14 13 12 14 16 16 15 15 16 17 18 18 17 16 16 16 17 17 15 14 14 13 11 14 14
17 14 13 15 17 15 16 19 19 20 19 18 18 17 17 17 17 17 17 17 18 18 18 18 18 17 17 17 17 16 16 15 15 17 17 19 18 19 18 17 18 18 18 18 18 19 19 19 19 18 18 18 18 19 18 18 18 17 17 18 17 17 16 16 16 14 13 12 11 9 9 10 13 15 16 16 16 17 16 16 16 16 16 15 16
16 14 14 14 15 15 17 18 19 20 20 19 19 18 18 17 17 16 16 16 16 17 18 17 17 17 17 17 17 16 16 15 16 14 14 16 17 19 19 19 18 18 18 18 19 19 20 19 19 18 18 17 17 17 17 17 18 17 17 17 17 17 17 15 14 14 13 12 10 8 8 9 9 13 14 15 15 15 15 15 15 16 16 16 15
15 14 13 13 14 15 16 18 19 21 20 19 19 19 18 17 17 17 17 16 17 17 17 17 17 17 17 17 17 17 16 16 15 14 14 14 15 17 19 18 18 17 18 18 19 19 19 19 18 15 15 15 15 16 16 16 17 17 17 17 17 17 16 15 14 14 13 12 10 8 8 9 9 9 14 13 14 13 14 14 15 16 16 16 15
16 13 13 13 12 15 15 17 20 20 19 19 19 19 18 18 17 17 16 17 17 17 17 17 17 17 17 17 17 17 17 16 16 15 12 12 14 16 19 19 18 18 18 18 18 19 19 19 16 16 15 14 13 13 13 14 16 17 17 17 16 15 15 15 14 12 10 8 7 7 7 9 9 8 12 12 12 12 12 14 14 14 14 13 14
13 12 12 12 12 15 16 17 20 19 19 19 18 18 19 18 17 16 17 17 16 17 17 17 17 17 17 17 17 16 16 16 17 13 12 13 14 14 16 19 18 17 18 18 17 18 18 16 16 14 13 12 12 12 12 12 15 16 16 16 16 16 15 14 13 11 10 8 8 7 7 8 10 9 13 13 13 15 14 15 15 15 15 15 13
12 12 13 12 14 19 16 17 18 20 19 19 19 19 18 18 17 17 16 16 16 16 16 17 17 17 17 17 16 16 15 15 16 14 12 12 14 14 14 15 16 15 15 14 14 15 16 15 14 13 12 13 13 14 14 16 17 16 16 16 16 15 14 13 12 11 8 7 8 8 9 9 9 9 11 12 13 14 15 15 15 15 14 14 15
12 12 11 11 14 17 16 16 17 19 18 19 18 18 18 17 17 17 16 16 16 16 16 17 17 17 16 16 16 16 15 16 16 14 13 13 14 15 15 16 17 16 15 16 15 15 14 14 13 12 13 13 14 15 16 17 17 16 16 16 15 15 14 13 12 9 8 10 10 11 9 11 10 10 13 14 15 16 16 16 14 14 12 14 15
13 12 10 11 16 15 15 16 17 19 20 19 18 17 17 17 17 17 16 15 16 15 15 16 16 16 16 16 16 16 16 15 15 14 14 14 15 15 15 16 15 15 15 16 15 14 14 13 12 12 13 13 14 14 15 16 16 16 16 16 15 14 13 12 10 9 9 11 12 11 10 11 8 10 13 13 14 14 15 15 14 14 14 14 14
13 12 12 11 17 14 15 16 18 18 19 19 18 18 17 17 17 16 16 15 15 15 14 15 14 16 16 15 16 15 16 15 15 14 14 14 15 15 15 15 14 15 15 15 14 14 14 13 12 12 13 13 14 14 15 16 16 16 16 15 15 13 11 9 8 8 10 11 12 10 11 10 12 12 15 14 13 14 14 14 15 16 15 15 15
13 13 13 13 15 14 15 16 17 18 19 18 18 17 17 16 16 16 14 12 14 14 14 14 13 12 13 14 15 15 15 15 15 15 15 15 14 14 14 14 14 15 15 15 14 14 14 13 13 13 13 14 14 14 14 15 16 16 16 15 14 13 11 9 8 9 9 11 10 10 10 9 11 13 13 14 14 14 14 14 15 15 15 15 15
14 14 13 13 12 16 14 15 15 17 18 17 16 15 15 15 15 14 12 12 14 13 12 12 12 11 11 12 12 14 14 13 13 14 14 14 14 13 13 14 14 14 14 14 14 14 14 13 12 13 13 14 14 14 14 15 15 15 16 15 14 13 12 8 9 9 10 11 10 11 11 9 10 11 12 13 13 13 13 13 13 14 14 14 14
14 15 14 14 13 14 16 13 15 16 15 15 14 14 15 14 13 12 11 13 13 12 12 12 12 12 10 11 11 12 12 12 13 14 14 13 13 12 12 13 13 13 14 14 14 14 13 12 12 12 13 13 13 13 14 14 15 15 15 14 13 11 9 8 8 9 9 9 9 10 10 9 11 11 13 13 12 13 13 13 12 12 12 13 12
14 14 13 13 14 13 13 15 15 14 14 15 14 14 15 14 14 13 12 12 12 12 11 11 12 12 11 10 11 11 11 11 11 12 12 13 12 12 12 12 13 13 14 13 13 13 12 11 10 11 12 13 13 14 14 14 14 14 14 14 13 11 9 8 8 9 9 9 9 10 10 10 11 11 12 12 12 11 12 12 12 12 12 13 12
13 14 13 13 14 13 12 13 14 16 14 14 13 13 14 14 13 13 13 13 13 13 11 10 11 11 12 11 10 9 9 11 11 11 11 11 11 11 11 11 12 12 12 12 12 11 11 10 9 10 12 13 14 14 14 14 14 14 14 13 13 11 9 8 8 8 7 9 8 8 7 8 9 10 12 12 12 12 12 12 11 11 12 12 12
13 14 13 13 13 12 12 13 15 14 13 13 13 13 13 13 13 13 14 14 13 12 11 10 10 11 13 12 10 9 9 11 11 10 10 9 10 10 10 10 11 11 10 11 11 10 10 9 9 10 13 14 15 15 15 15 14 14 14 13 13 12 10 8 8 7 8 8 8 7 7 9 8 10 11 11 11 11 11 12 12 12 12 12 11
13 13 13 13 12 12 12 12 13 13 14 11 11 13 13 13 13 13 14 14 13 13 12 11 12 12 13 13 12 11 11 12 11 9 9 9 10 10 9 10 10 10 10 10 10 10 10 10 10 12 14 15 15 15 15 15 14 15 14 13 12 11 9 7 7 8 8 7 6 7 8 8 6 10 11 11 11 10 11 11 11 11 12 12 11
11 12 12 11 11 11 11 12 12 13 12 11 12 14 15 16 14 14 14 14 15 14 13 13 15 15 15 14 13 11 12 12 12 9 8 9 8 8 9 9 9 9 9 9 9 10 10 11 12 13 14 15 15 15 15 14 14 14 14 13 12 10 6 6 8 7 6 7 7 7 7 6 10 10 10 10 10 10 11 10 10 10 11 11 11
8 10 11 11 12 12 13 10 12 13 12 12 11 12 13 17 15 16 15 15 15 16 13 15 16 16 15 13 11 10 10 10 10 8 9 6 9 8 8 10 9 8 9 8 8 9 11 12 13 13 15 16 15 15 14 14 14 14 13 12 11 6 6 6 6 6 7 6 6 7 8 11 10 10 10 10 9 9 8 8 9 9 9 10 12
10 10 11 12 12 11 12 12 11 12 12 10 9 8 10 13 13 13 12 13 14 14 13 12 13 11 13 11 9 8 8 8 9 10 6 8 8 8 8 10 9 9 8 7 7 7 11 12 14 14 15 15 15 10 10 13 14 13 12 10 6 6 6 7 6 6 6 5 6 8 9 9 9 9 9 9 9 9 9 9 9 10 10 10 10
11 10 9 12 11 10 12 11 13 12 12 11 9 9 11 10 11 11 9 12 12 12 10 11 10 10 10 9 7 6 7 7 7 7 7 8 9 9 8 9 10 9 8 8 7 6 7 11 14 14 13 12 8 7 7 8 8 13 11 6 5 6 6 7 6 5 5 6 6 9 7 7 8 9 9 9 9 8 9 9 9 9 9 9 10
12 9 10 9 11 10 12 12 13 14 13 11 10 10 10 10 9 9 9 9 10 9 10 10 9 10 9 7 7 7 7 6 9 10 9 7 8 9 8 9 10 9 9 8 8 7 8 9 12 13 10 7 5 6 6 6 7 6 6 5 5 6 6 6 5 5 5 5 7 8 8 8 9 8 8 9 8 8 8 8 9 9 8 9 10
10 10 9 10 11 11 12 11 11 12 13 11 11 11 11 11 10 10 9 9 9 8 9 9 9 10 8 6 6 7 6 6 7 7 6 7 7 6 6 6 7 7 5 7 7 5 3 5 6 7 5 6 5 5 5 6 6 6 6 5 6 6 5 5 5 5 5 5 7 7 8 8 7 8 8 8 8 8 9 9 8 8 8 8 8
8 9 10 10 11 11 12 11 11 11 11 11 11 10 11 10 10 10 9 9 8 9 8 8 9 9 8 7 7 6 6 6 7 7 6 7 7 6 6 6 6 6 6 7 7 4 3 3 5 5 5 4 5 5 5 6 6 6 5 5 5 5 5 5 5 5 5 5 7 8 7 7 7 8 9 8 8 8 8 8 8 9 8 7 8
9 9 9 10 10 10 10 9 9 9 11 10 10 10 11 10 10 10 10 10 9 10 9 9 8 9 9 8 7 6 7 6 6 6 6 6 6 6 6 6 6 6 6 6 6 4 3 3 4 5 5 5 5 5 5 5 6 7 6 6 5 5 4 4 5 5 5 5 7 7 7 5 6 8 7 7 7 8 8 8 8 8 7 7 7
9 9 9 9 9 11 10 9 8 8 9 10 10 10 9 10 9 10 10 10 10 10 10 9 8 9 10 8 6 6 7 6 6 6 5 5 6 5 5 5 5 6 6 5 5 4 3 3 4 5 6 5 5 5 5 5 5 5 6 5 5 5 4 4 4 5 5 4 6 7 5 7 7 4 7 7 7 7 7 6 6 7 7 8 7
9 8 7 7 8 9 11 12 11 12 10 10 11 9 9 9 9 10 10 10 10 10 9 8 9 8 10 10 9 8 7 6 6 5 5 5 5 5 5 4 4 5 5 4 4 5 4 5 5 5 5 5 5 5 5 5 5 5 5 6 5 5 5 4 4 4 4 4 4 6 6 7 5 4 6 6 6 7 7 7 7 8 8 8 7
6 6 7 7 6 7 11 12 12 12 11 10 9 9 10 10 10 10 9 10 10 7 8 8 8 9 9 9 10 9 7 6 6 6 6 6 6 5 5 4 4 4 4 5 4 4 5 5 5 6 6 5 5 5 5 5 5 5 4 5 5 5 4 4 4 4 4 4 4 6 7 6 4 2 3 5 6 7 7 7 8 8 8 8 7
3 5 8 9 8 11 12 14 14 12 9 10 9 10 10 9 9 9 8 9 8 7 7 7 8 8 7 9 10 9 8 7 7 7 6 6 6 6 5 4 5 4 4 5 4 4 4 6 6 6 6 5 5 5 5 5 5 5 4 5 4 4 4 3 4 4 3 3 4 4 6 5 4 3 3 2 4 6 7 7 8 8 8 9 8
6 10 12 9 11 15 11 12 13 12 11 12 9 11 11 11 10 10 9 9 9 7 6 7 8 6 6 8 8 8 8 7 8 8 7 7 7 7 6 5 5 5 4 4 5 5 4 4 4 4 5 5 5 5 4 5 5 4 4 4 4 4 4 4 4 4 4 3 3 4 4 5 4 3 4 4 5 6 6 7 7 8 8 8 9
10 12 8 8 10 10 10 12 12 12 13 13 11 10 9 9 9 10 8 9 9 9 8 8 7 8 7 9 8 9 8 8 8 8 8 7 7 7 6 6 4 4 4 4 6 6 5 5 4 4 5 5 5 4 4 4 5 4 4 4 3 3 3 3 4 4 4 4 3 3 3 3 5 6 5 5 5 4 6 7 8 8 8 9 9
10 9 11 14 12 10 10 11 13 14 12 10 8 9 9 7 7 8 7 7 7 7 7 6 6 8 8 8 8 9 8 8 7 7 7 6 7 7 6 6 5 4 3 4 5 5 6 6 6 5 4 5 5 5 4 4 3 4 4 4 4 4 3 3 3 4 4 3 3 3 3 3 3 4 5 6 5 6 5 6 7 8 8 9 9
10 9 11 13 14 13 11 10 9 9 9 10 8 8 7 6 6 7 6 7 7 6 5 4 6 8 7 8 9 8 9 9 8 7 7 7 7 7 7 6 6 6 5 4 5 5 6 6 6 6 5 4 5 5 5 5 5 5 5 5 4 4 4 4 4 4 4 4 4 3 3 3 3 3 4 5 6 5 2 4 7 7 7 7 6
14 13 12 12 14 15 13 11 8 10 9 8 8 6 6 5 5 5 5 6 6 6 6 6 7 6 7 7 9 9 9 10 9 8 6 7 7 7 7 6 7 6 7 5 5 6 6 6 5 6 7 6 6 6 5 5 5 5 5 5 4 5 4 4 4 4 4 4 3 3 3 3 4 3 3 4 4 6 6 4 3 2 4 4 4
13 13 13 13 14 15 13 13 11 10 8 6 6 6 5 6 6 7 6 7 7 7 5 4 6 6 7 8 9 9 10 10 10 9 8 8 7 7 6 7 7 7 7 6 6 5 5 6 6 5 5 6 6 7 6 5 5 5 5 5 5 4 5 4 4 4 4 4 3 3 3 4 4 3 3 3 3 4 6 5 3 4 3 3 1
13 13 13 12 13 11 10 10 9 6 6 6 6 6 4 5 5 6 6 7 9 7 5 3 4 6 7 8 9 9 9 10 10 10 8 8 8 7 6 7 7 7 7 6 6 4 5 5 7 6 5 6 7 7 7 6 5 4 5 5 5 5 4 4 4 4 4 4 4 3 3 3 3 2 1 1 1 1 2 4 3 2 3 2 3
11 13 12 11 10 8 8 9 8 6 4 4 5 5 5 5 3 3 5 7 5 6 6 5 5 7 8 9 10 9 10 11 11 11 9 9 8 7 7 7 7 6 6 7 6 7 6 6 8 7 6 6 6 7 7 6 5 5 5 5 4 3 3 4 4 4 4 4 2 2 3 3 2 2 2 1 1 1 1 1 2 3 3 3 1
10 10 10 9 10 9 6 3 3 0 3 4 5 4 4 4 4 3 4 7 7 6 6 6 5 7 8 8 9 10 9 10 11 11 10 9 8 8 8 8 7 6 6 7 7 8 8 8 9 10 9 7 6 6 7 7 6 5 5 4 4 4 4 4 5 4 4 3 3 2 3 3 2 3 2 2 1 2 1 0 1 2 2 3 2
6 7 7 7 7 7 8 8 7 5 3 2 3 3 4 4 4 5 5 5 7 7 7 5 6 7 9 9 10 9 10 10 9 9 9 9 8 7 8 7 7 7 7 7 8 9 9 9 9 8 10 9 7 7 7 7 8 5 5 5 4 4 4 5 6 5 5 4 3 3 2 4 3 3 3 2 2 1 1 0 0 2 2 1 3
11 12 10 8 9 11 9 8 7 6 5 3 3 2 1 3 3 5 5 6 7 8 7 6 5 5 7 9 10 10 11 10 9 9 9 10 9 7 7 7 6 6 6 7 9 9 11 9 9 8 8 9 8 9 9 9 6 6 6 4 3 2 3 5 5 5 5 4 4 4 3 4 4 4 3 3 3 2 1 1 1 1 2 0 0
5 5 6 8 9 7 6 6 6 9 8 8 7 7 7 5 4 5 6 6 7 7 8 5 4 6 7 8 10 10 11 10 11 10 9 10 9 9 8 8 7 5 6 7 8 9 10 11 12 9 8 6 6 8 10 9 5 6 5 5 4 4 3 3 4 5 5 3 4 4 4 5 4 4 3 3 3 2 2 1 1 1 1 1 2
4 4 5 7 5 5 6 8 9 10 9 8 7 6 6 7 7 5 6 7 7 6 8 7 5 6 8 9 9 10 11 11 11 11 9 10 10 9 8 7 5 6 8 8 9 10 9 8 9 9 10 9 6 7 9 9 5 9 6 4 4 4 3 6 5 4 4 5 5 4 4 3 5 5 4 4 3 3 2 1 1 1 1 1 2
5 4 2 1 3 6 6 8 3 5 6 7 6 6 6 6 6 6 6 5 6 5 7 7 7 6 7 8 9 10 11 10 10 11 10 10 10 9 9 7 5 6 8 9 8 10 9 10 10 9 9 9 9 7 9 9 8 6 5 6 3 4 5 3 6 4 5 5 6 6 6 5 6 6 5 4 4 3 3 3 2 2 2 2 3
2 1 2 4 4 5 6 4 5 5 6 8 7 5 5 5 5 6 7 8 8 7 9 10 8 8 8 7 7 8 8 8 8 9 9 8 8 9 9 9 9 8 9 8 8 7 9 11 12 10 10 9 9 9 9 8 8 6 1 2 2 1 5 6 7 4 4 5 4 5 6 6 6 6 5 5 6 4 3 3 2 3 3 2 4
3 3 3 4 6 7 9 7 2 4 5 7 7 5 3 4 5 6 7 8 9 8 6 7 4 5 5 9 7 5 4 5 6 7 7 7 7 8 9 9 10 10 9 8 8 10 9 11 10 9 9 8 9 9 11 10 7 6 3 1 1 1 2 7 7 4 6 5 5 5 5 6 6 7 6 6 5 5 4 3 3 4 3 2 4
7 7 6 7 8 8 8 7 5 2 2 5 6 5 4 4 5 7 8 8 9 9 8 4 2 1 5 6 3 2 3 5 5 7 6 3 2 6 7 8 10 9 9 8 8 8 8 8 8 8 9 9 10 8 10 10 11 10 8 5 3 2 5 3 4 6 4 7 6 5 4 5 4 6 6 6 6 5 5 4 4 5 4 4 4
9 8 7 7 5 6 7 6 6 5 2 1 3 4 3 5 4 5 6 6 7 6 4 3 4 6 9 7 5 6 5 4 5 4 5 9 9 8 8 9 10 9 10 10 8 8 11 9 8 8 10 9 8 8 9 11 11 9 10 8 6 4 5 3 3 4 4 5 6 7 6 5 5 5 4 5 5 5 6 5 4 6 6 5 4
10 10 10 9 8 7 8 7 8 7 5 4 2 4 5 5 5 5 6 5 3 2 2 4 5 8 8 6 5 5 6 8 4 5 5 4 6 7 7 9 10 12 9 10 10 11 10 10 11 11 12 11 8 9 9 9 9 8 10 10 9 7 6 5 5 6 3 4 4 8 8 8 8 6 5 5 6 6 6 5 5 6 5 5 4
10 11 10 11 10 10 9 11 9 7 5 5 4 3 4 5 6 7 8 7 5 3 3 5 5 5 5 5 4 6 4 5 6 5 8 7 9 10 10 11 11 11 11 10 9 9 10 11 10 13 11 12 9 9 9 8 8 8 10 9 10 10 9 9 8 7 6 6 5 6 7 9 8 7 7 6 6 6 5 6 6 6 5 5 4
Wind_Direction
147 141 142 139 139 135 128 120 115 113 113 111 114 118 121 122 124 125 126 125 124 123 122 123 123 122 122 124 124 126 127 119 112 114 112 110 110 111 112 110 108 107 105 102 99 96 97 102 101 100 107 101 99 97 96 91 91 97 102 100 96 89 90 90 89 96 98 90 84 89 88 86 86 83 82 82 81 76 73 70 75 73 71 72 71
148 140 142 142 135 132 128 121 118 116 116 113 115 116 119 121 122 123 124 125 124 123 123 124 124 122 122 123 125 126 125 118 115 116 114 114 112 112 111 109 107 101 102 100 97 100 105 106 104 103 99 102 101 97 92 93 95 99 101 95 90 96 93 88 86 84 87 89 90 87 83 81 79 80 80 79 79 76 71 66 63 72 74 76 72
139 138 139 139 135 132 128 125 121 119 118 117 115 114 113 116 119 121 121 123 123 122 122 124 124 123 122 123 125 126 122 119 120 118 119 119 117 113 107 108 103 102 103 104 106 106 105 102 98 100 102 99 99 97 95 96 99 99 104 102 98 90 83 84 85 83 84 87 88 87 81 74 73 77 81 79 78 76 74 72 72 72 74 73 74
138 136 137 133 131 128 128 126 123 121 121 118 116 115 116 115 114 116 117 119 120 122 123 123 123 121 121 125 124 122 120 120 117 120 121 118 116 112 112 109 106 105 104 102 104 104 104 106 105 101 101 100 97 94 94 94 95 94 92 97 100 96 90 84 81 80 78 76 73 84 85 88 80 74 73 74 73 74 75 77 77 76 79 76 74
134 135 135 135 134 130 129 125 123 121 121 121 120 119 119 118 118 119 121 122 122 121 122 121 121 121 124 127 123 122 123 120 119 123 119 120 119 119 115 111 108 106 105 104 103 105 104 101 99 96 94 93 95 96 95 92 90 89 89 90 89 89 87 85 81 80 79 72 82 89 89 87 85 75 77 76 75 75 76 76 75 77 81 77 76
137 135 135 135 136 133 128 125 124 123 123 124 124 125 124 124 125 126 126 124 123 124 124 124 124 125 128 128 127 129 127 125 124 117 115 120 120 118 115 112 108 104 104 104 104 105 104 102 102 99 98 98 100 102 99 93 89 90 92 90 92 92 89 84 81 79 74 75 76 80 81 80 80 79 76 77 77 77 77 77 79 84 81 81 80
134 132 134 135 136 135 129 126 125 125 126 127 128 129 127 127 128 130 129 127 128 128 127 127 129 130 131 131 131 129 127 128 127 128 129 127 120 121 120 116 113 110 105 105 106 107 107 106 100 95 95 99 102 105 105 103 98 97 98 96 94 93 91 88 82 76 75 84 80 82 84 87 90 85 83 84 80 89 93 88 88 82 77 78 81
131 135 135 135 137 134 131 129 129 129 130 130 131 130 129 129 131 132 132 131 130 130 130 130 132 132 130 130 130 130 131 130 129 124 118 121 122 122 121 119 113 113 113 109 105 104 104 98 93 92 93 93 91 89 93 108 109 105 101 99 95 94 93 91 87 78 83 86 85 83 89 88 88 89 86 91 92 77 81 87 86 84 79 75 77
134 135 136 133 135 135 132 133 132 132 131 132 132 130 130 131 134 134 133 133 134 133 134 134 133 133 133 133 132 134 134 133 128 122 119 119 120 122 121 118 110 103 99 99 104 106 98 94 95 93 95 95 92 88 91 107 112 107 101 99 97 94 93 93 95 104 99 93 90 92 94 98 85 88 93 94 88 89 92 93 93 86 77 79 82
133 134 133 136 140 134 135 135 133 133 131 132 132 131 133 135 136 135 135 136 134 134 134 132 131 133 132 132 133 133 131 131 128 122 116 106 98 97 102 107 114 109 110 111 105 103 99 98 97 99 99 100 99 98 99 106 108 105 103 101 99 97 95 94 95 90 95 101 98 89 79 82 95 94 95 95 89 84 76 72 72 75 80 80 75
136 137 139 136 139 133 137 136 135 133 134 135 135 135 137 138 137 137 135 136 136 134 134 132 133 134 136 135 133 134 134 131 128 124 120 113 110 111 114 119 119 120 117 115 114 108 106 104 102 103 106 107 106 106 106 107 107 105 102 100 100 100 99 104 107 98 95 96 98 98 93 100 94 101 102 97 90 85 83 82 81 84 85 84 82
138 139 140 137 135 135 137 139 137 136 137 137 138 138 138 138 137 136 136 135 135 135 134 133 132 134 134 133 133 134 131 127 123 123 123 118 120 121 121 120 119 120 121 120 116 111 110 110 110 114 117 116 113 110 110 108 105 103 102 101 100 100 97 98 100 101 102 98 94 98 96 95 100 97 101 99 95 88 86 86 84 81 81 80 82
141 143 142 136 141 140 142 142 139 138 136 141 140 139 138 139 139 137 134 132 135 136 136 133 130 135 136 137 136 133 128 128 128 128 129 127 126 125 123 124 125 125 124 123 120 120 118 118 121 122 122 120 115 110 108 105 104 103 104 103 103 102 101 106 105 102 100 96 96 94 95 94 94 100 100 102 102 97 92 89 92 84 87 84 81
145 147 145 140 143 144 143 142 137 137 141 142 139 138 139 138 138 136 133 131 136 137 134 133 134 139 142 135 132 130 133 131 132 132 131 129 125 121 124 127 129 129 129 129 128 124 122 122 124 125 126 124 118 113 109 107 105 105 105 104 103 102 103 101 102 103 100 97 94 91 89 96 98 96 95 97 95 93 90 89 87 86 81 79 77
145 148 145 144 141 148 142 139 137 138 138 137 139 140 137 137 135 135 135 133 134 133 136 139 140 143 141 134 128 128 134 137 138 135 132 126 122 125 128 129 132 134 134 131 126 124 125 125 128 131 129 126 121 114 109 107 106 105 103 102 102 102 116 113 108 101 99 98 98 100 99 99 81 96 99 98 98 94 93 92 92 90 85 80 79
144 142 146 146 143 145 148 141 139 136 137 138 141 142 140 138 136 138 135 129 129 134 139 142 143 143 138 126 126 136 143 142 135 132 130 126 128 127 127 129 133 134 132 126 125 125 127 131 137 139 133 127 120 112 109 107 105 104 103 102 102 96 92 103 104 103 101 100 97 93 98 98 103 101 104 99 94 91 91 92 89 89 85 81 80
142 143 148 146 146 147 148 146 143 138 136 138 140 139 139 137 138 138 135 132 136 138 138 138 134 132 131 129 132 142 145 139 139 134 130 128 125 122 123 126 129 132 128 124 126 128 130 136 141 137 129 123 117 113 111 109 107 106 105 104 102 97 90 98 102 100 97 95 94 95 98 104 100 101 100 102 99 97 95 92 88 84 85 83 83
147 149 149 149 149 147 148 147 145 149 143 138 134 135 136 138 138 138 137 138 139 138 140 135 129 130 134 136 144 148 140 141 138 132 127 123 117 116 119 123 128 129 128 127 130 131 134 136 135 133 130 123 119 117 115 113 111 109 107 105 102 97 91 99 101 100 99 98 89 89 93 84 98 106 99 95 100 101 101 96 95 91 88 87 84
152 152 149 150 151 148 154 151 153 152 150 150 151 140 138 140 139 143 146 144 140 142 142 139 135 137 138 147 153 154 147 145 134 131 123 120 112 111 117 121 125 130 130 132 133 132 131 131 132 133 130 124 119 116 116 116 114 114 112 107 101 97 104 110 101 100 102 95 94 90 91 96 91 88 97 99 99 97 90 94 92 90 89 87 85
154 152 149 151 152 153 159 157 156 154 154 155 153 151 146 147 147 150 150 146 145 145 148 151 149 146 151 155 158 160 155 146 139 136 129 117 109 113 116 120 125 131 132 134 134 132 131 129 128 130 127 121 117 117 117 117 117 117 116 113 110 118 121 104 104 101 97 94 95 99 119 140 114 105 98 94 89 90 87 83 90 97 92 89 91
153 154 153 155 157 158 162 160 160 156 155 153 153 152 154 154 154 155 154 154 151 150 155 160 156 155 156 160 163 170 162 150 149 143 137 125 110 114 120 124 124 133 133 131 131 131 128 125 125 123 124 121 118 117 117 118 118 120 117 114 123 123 110 112 109 105 105 105 102 105 122 91 87 92 94 100 100 88 88 97 93 94 96 95 91
159 159 162 160 159 162 165 163 160 158 156 153 153 154 156 161 158 159 160 159 157 157 164 163 162 160 160 161 169 165 159 155 150 142 137 130 122 118 125 125 128 131 129 126 126 130 128 126 127 123 122 123 127 125 119 114 117 118 116 124 131 116 119 116 112 105 106 105 100 97 103 110 112 102 97 90 97 100 90 84 87 88 87 91 93
165 164 166 165 162 164 166 163 160 159 156 156 157 156 159 160 162 161 160 163 160 164 166 164 165 163 163 166 163 165 161 158 152 141 139 124 121 121 119 130 129 132 131 119 118 120 121 123 123 124 123 133 140 127 129 128 120 119 126 134 119 123 122 121 115 111 102 94 98 102 99 104 107 108 109 109 98 95 102 98 87 83 86 87 86
168 168 164 169 163 168 168 166 164 162 161 161 159 159 160 161 163 165 163 166 164 167 165 167 168 165 164 165 163 162 161 157 145 143 138 142 127 123 122 123 127 134 132 132 122 104 97 101 111 119 132 148 133 136 130 127 130 140 137 133 127 127 130 129 121 109 105 105 96 114 117 114 101 102 99 92 99 106 98 89 83 85 91 87 85
164 167 166 169 171 169 169 168 168 166 167 162 161 165 165 167 167 168 165 167 166 165 167 170 169 167 156 159 161 162 161 159 160 156 161 147 144 145 146 147 141 135 133 145 146 131 138 134 129 143 145 144 141 131 132 126 128 136 137 132 132 132 128 125 118 117 111 104 104 114 96 94 111 106 104 107 107 95 86 85 92 90 81 82 90
161 167 172 172 175 175 175 171 170 174 172 169 169 165 165 167 170 167 167 165 167 167 171 174 176 166 159 161 160 163 165 168 167 168 162 155 154 154 155 149 145 143 151 154 153 157 150 147 148 147 145 145 136 135 130 132 133 134 137 136 135 136 130 128 120 117 112 110 113 105 107 117 124 116 114 110 104 105 105 104 100 94 91 90 87
168 175 174 179 176 177 175 167 171 173 175 171 168 167 172 169 170 171 169 169 169 171 177 179 173 170 163 162 163 168 167 169 170 170 167 164 161 163 156 156 156 156 162 162 158 158 154 141 136 141 144 144 143 136 136 133 133 135 136 141 137 134 132 127 127 120 114 111 119 131 134 133 108 96 100 106 108 109 99 99 102 106 107 101 104
175 176 180 177 175 176 170 167 168 179 180 177 175 175 171 170 167 169 178 172 170 175 179 174 162 173 169 164 165 163 166 169 171 171 172 175 172 167 163 156 154 152 156 158 149 151 139 126 122 127 142 145 144 144 141 136 130 133 137 138 139 135 136 131 122 117 111 118 121 121 95 89 98 114 111 110 112 107 113 116 117 107 106 101 92
179 180 186 175 167 175 178 176 177 187 184 181 177 178 174 173 170 177 179 173 176 179 173 162 168 172 173 169 168 167 167 168 171 170 174 183 172 181 177 162 148 145 149 142 146 151 143 134 132 138 141 148 149 147 146 138 135 143 145 141 142 141 140 138 132 135 119 115 120 117 129 106 112 107 114 120 120 121 121 128 126 116 101 96 90
187 181 186 198 167 170 181 183 186 190 188 184 178 178 179 179 178 182 181 176 181 177 159 167 165 172 178 175 168 166 168 165 168 176 180 182 179 189 192 172 153 142 146 142 145 157 152 142 139 143 146 152 154 148 151 146 148 147 149 143 146 145 141 143 138 133 128 125 119 122 111 96 78 95 107 121 127 133 136 126 119 112 111 115 113
1 202 205 198 198 191 180 180 191 193 190 188 180 187 184 184 181 183 184 182 180 170 173 167 168 178 175 176 173 171 165 162 172 180 185 180 183 190 198 188 174 157 151 133 135 152 159 159 155 153 155 156 153 154 163 153 147 153 146 147 141 144 143 137 136 138 139 128 128 125 123 115 111 117 34 47 136 130 114 117 115 119 125 121 125
163 220 208 202 204 207 193 187 193 193 193 195 187 192 189 189 181 186 188 182 179 179 176 178 177 178 172 174 174 171 167 168 172 178 185 185 187 192 194 202 189 167 161 146 139 147 159 143 141 144 143 150 147 157 159 158 153 148 155 138 144 143 146 147 147 147 143 133 124 127 130 132 143 100 87 67 82 113 132 129 131 131 127 128 133
210 202 198 208 215 207 205 201 201 200 198 199 197 194 193 191 188 191 190 181 184 187 185 189 187 182 177 183 180 175 172 175 178 181 186 184 191 188 194 205 204 182 157 142 137 144 146 146 146 148 149 144 150 150 160 151 152 146 147 143 142 146 144 159 150 158 152 141 136 132 134 139 130 118 111 127 121 131 131 134 140 146 144 144 144
211 209 198 207 208 206 205 209 206 203 201 197 196 196 192 192 197 192 194 188 192 195 192 193 191 192 185 186 182 177 177 175 177 180 189 185 186 192 195 205 209 196 169 165 167 166 159 154 149 150 136 147 150 154 157 151 139 147 142 149 167 159 166 170 161 160 153 149 139 147 138 144 143 141 138 131 126 130 134 150 155 150 149 149 153
216 210 209 211 211 214 211 214 211 207 198 200 193 193 190 196 199 198 195 198 196 203 200 194 201 198 188 183 185 178 181 179 180 181 186 186 186 191 198 204 203 206 198 184 187 173 164 154 152 143 149 154 159 164 171 168 167 161 160 168 170 167 178 175 169 164 163 150 163 147 147 145 150 157 150 150 137 131 146 158 159 151 161 166 157
209 210 209 211 215 216 215 216 207 209 205 198 196 189 186 190 194 190 197 198 198 208 204 208 213 201 191 180 184 182 182 181 183 183 181 189 191 194 198 200 198 200 206 197 194 188 165 158 149 146 150 156 159 158 164 159 162 157 161 168 170 175 178 174 175 171 164 168 170 155 149 159 169 148 148 143 137 114 77 74 58 132 185 173 161
215 214 213 214 218 217 215 216 214 207 204 190 180 180 173 165 154 180 194 199 200 206 201 214 223 212 201 194 190 186 185 182 188 190 185 190 193 195 197 195 197 200 197 203 204 190 169 158 156 163 141 152 164 155 153 152 154 158 162 166 172 176 183 178 176 173 167 183 165 164 158 171 138 136 154 139 136 140 91 51 66 51 39 27 300
223 224 221 221 224 222 220 218 219 209 201 193 179 179 161 134 151 166 187 200 203 198 185 179 223 222 216 206 196 194 193 189 191 190 191 192 193 195 195 198 197 197 194 195 204 189 178 152 151 157 158 154 159 161 159 155 154 156 163 166 168 184 175 180 169 170 186 180 181 182 170 163 151 130 148 122 110 94 151 124 95 77 37 29 92
220 228 226 227 231 230 225 220 217 206 184 168 156 147 139 115 117 144 189 211 215 204 191 188 202 225 222 213 206 202 200 195 191 189 190 190 192 196 196 198 195 201 201 198 197 200 190 172 161 154 155 164 166 164 158 154 150 153 161 163 163 155 170 175 175 188 197 185 180 187 179 183 139 149 160 143 114 91 70 298 235 234 175 115 0
222 229 231 235 239 241 234 250 259 212 168 146 134 134 152 128 138 152 209 217 215 209 214 208 192 217 224 218 211 207 202 199 196 189 190 189 190 195 199 201 196 194 193 203 201 199 188 179 172 160 152 148 151 154 152 146 137 137 144 152 158 152 168 182 181 188 191 183 188 199 206 168 168 160 170 145 148 132 104 341 288 264 274 138 99
248 260 254 264 293 328 353 8 9 11 39 49 111 145 161 159 165 193 214 218 228 227 219 222 217 219 222 217 216 212 204 200 202 195 190 187 188 191 199 200 202 197 198 201 205 202 190 180 168 163 156 149 149 156 155 149 140 134 151 158 168 164 169 185 186 190 200 190 187 197 226 199 174 184 167 164 158 130 128 332 299 272 262 201 148
13 358 343 344 9 14 16 32 45 40 33 17 53 60 277 205 174 207 218 211 224 230 227 228 239 236 232 225 220 219 211 204 202 202 199 191 184 189 195 191 189 201 208 209 200 195 181 173 165 159 169 162 157 166 160 156 169 169 159 148 151 165 184 185 187 199 201 198 192 195 196 213 184 173 165 183 159 141 109 151 230 238 264 261 120
121 149 128 106 107 121 135 154 162 153 174 158 164 170 181 179 161 205 217 229 226 234 241 206 213 228 222 233 232 225 217 211 205 202 202 200 191 191 196 188 181 185 195 198 189 182 181 176 174 166 161 167 154 171 172 195 178 173 167 165 173 156 140 179 172 188 185 176 195 210 202 197 187 183 185 197 176 157 149 181 203 220 237 160 112
34 47 68 113 114 131 177 184 193 168 156 160 159 165 163 163 153 179 202 220 237 226 239 241 224 234 239 236 236 231 222 215 208 201 204 202 192 191 192 200 173 195 203 200 192 186 175 178 181 179 169 161 159 171 191 199 190 162 166 202 167 185 182 209 188 191 190 165 165 182 218 207 184 176 183 194 174 149 167 163 159 164 172 116 125
41 32 354 121 173 181 205 221 206 128 126 136 168 191 182 170 177 176 203 215 231 230 232 234 226 229 233 232 238 235 228 223 215 208 207 205 196 187 190 198 175 201 207 199 193 192 183 190 185 176 182 176 172 169 188 192 195 196 158 156 159 206 225 190 184 172 190 183 190 191 203 184 199 174 186 178 173 160 160 155 148 153 151 156 128
109 212 241 237 224 217 217 219 93 138 135 130 139 169 194 209 210 210 205 207 221 217 231 235 226 223 229 238 247 238 244 237 228 220 216 214 200 191 191 200 200 208 214 197 184 172 177 190 190 191 190 188 177 169 179 188 202 184 229 353 348 265 204 181 191 177 181 210 194 197 190 183 182 176 181 180 193 164 163 149 158 143 150 152 153
7 326 296 334 344 332 325 336 176 147 132 131 135 137 184 211 225 231 230 233 236 233 225 237 229 230 231 228 226 224 237 275 278 253 233 223 213 202 195 201 207 206 225 204 181 193 196 199 194 193 195 186 180 178 178 182 189 196 197 180 13 333 201 170 202 181 188 175 194 195 194 182 191 183 182 200 192 165 161 149 150 148 150 166 161
18 18 14 6 7 3 354 347 332 345 103 120 130 147 187 216 235 243 231 223 229 246 238 225 172 115 260 235 171 219 196 211 241 251 247 244 229 216 201 211 214 204 212 216 199 194 197 201 184 203 192 192 194 191 182 180 187 196 195 186 179 190 188 221 240 198 194 182 187 184 160 175 189 195 188 197 193 174 158 164 159 159 172 169 168
24 21 20 17 12 6 6 4 5 353 358 133 134 131 170 188 204 241 251 244 245 242 216 149 183 198 232 236 220 198 191 176 204 238 191 180 186 185 177 210 222 220 210 212 198 170 188 188 179 199 198 199 198 200 187 188 195 193 185 189 188 184 180 204 196 212 199 175 177 179 178 158 200 194 192 206 188 180 172 173 167 166 167 169 172
19 18 20 19 18 11 357 350 7 21 4 330 272 204 178 192 199 212 245 261 242 243 208 225 219 228 239 237 238 217 200 207 196 227 233 220 205 204 201 208 216 221 222 220 206 186 182 187 187 206 205 201 202 200 198 188 194 195 193 185 188 184 191 194 200 198 195 211 184 194 185 177 196 185 187 199 196 191 177 171 173 181 169 173 171
12 11 12 19 25 25 4 2 4 11 20 12 343 303 252 219 217 217 220 230 223 185 205 228 203 196 235 226 171 252 222 207 174 203 240 225 212 208 209 212 220 225 226 222 214 205 179 171 174 201 201 204 202 204 205 195 192 194 194 192 196 195 190 196 189 192 191 184 194 182 188 195 200 181 196 199 197 190 182 183 186 183 180 178 175